| time (UTC) | temp C | wind direction | speed KPH | gust KPH | rain 1hr cm | rain 24hr cm | rain mn cm | humidity % | barometer mb |
| 20260506232010 | 17 | 338 | 6.4 | 16.1 | 0.00 | 0.00 | 0.00 | 51 | 1015.9 |
| 20260506231527 | 17 | 113 | 6.4 | 16.1 | 0.00 | 0.00 | 0.00 | 51 | 1015.9 |
| 20260506231010 | 17 | 315 | 4.8 | 16.1 | 0.00 | 0.00 | 0.00 | 51 | 1015.9 |
| 20260506230510 | 17 | 350 | 4.8 | 14.5 | 0.00 | 0.00 | 0.00 | 50 | 1015.8 |
| 20260506230030 | 17 | 340 | 6.4 | 14.5 | 0.00 | 0.00 | 0.00 | 51 | 1015.8 |
| 20260506225512 | 17 | 69 | 4.8 | 16.1 | 0.00 | 0.00 | 0.00 | 51 | 1015.7 |
| 20260506225006 | 17 | 19 | 4.8 | 16.1 | 0.00 | 0.00 | 0.00 | 51 | 1015.7 |
| 20260506224522 | 17 | 9 | 3.2 | 17.7 | 0.00 | 0.00 | 0.00 | 51 | 1015.6 |
| 20260506224007 | 17 | 11 | 1.6 | 20.9 | 0.00 | 0.00 | 0.00 | 51 | 1015.7 |
| 20260506223510 | 17 | 67 | 9.7 | 20.9 | 0.00 | 0.00 | 0.00 | 49 | 1015.6 |
| 20260506223028 | 17 | 86 | 9.7 | 20.9 | 0.00 | 0.00 | 0.00 | 50 | 1015.6 |
| 20260506222510 | 17 | 20 | 3.2 | 16.1 | 0.00 | 0.00 | 0.00 | 51 | 1015.5 |
| 20260506222010 | 17 | 9 | 4.8 | 16.1 | 0.00 | 0.00 | 0.00 | 51 | 1015.5 |
| 20260506221530 | 17 | 69 | 4.8 | 14.5 | 0.00 | 0.00 | 0.00 | 51 | 1015.5 |
| 20260506221014 | 17 | 55 | 4.8 | 19.3 | 0.00 | 0.00 | 0.00 | 51 | 1015.5 |
| 20260506220510 | 17 | 15 | 8.0 | 19.3 | 0.00 | 0.00 | 0.00 | 50 | 1015.5 |
| 20260506220020 | 17 | 21 | 4.8 | 17.7 | 0.00 | 0.00 | 0.00 | 50 | 1015.5 |
| 20260506215508 | 17 | 31 | 4.8 | 17.7 | 0.00 | 0.00 | 0.00 | 50 | 1015.4 |
| 20260506215006 | 17 | 25 | 4.8 | 17.7 | 0.00 | 0.00 | 0.00 | 50 | 1015.4 |
| 20260506214503 | 18 | 79 | 11.3 | 17.7 | 0.00 | 0.00 | 0.00 | 49 | 1015.4 |
| 20260506214004 | 19 | 76 | 4.8 | 22.5 | 0.00 | 0.00 | 0.00 | 48 | 1015.3 |
| 20260506213503 | 18 | 78 | 9.7 | 22.5 | 0.00 | 0.00 | 0.00 | 47 | 1015.3 |
| 20260506213008 | 18 | 331 | 8.0 | 19.3 | 0.00 | 0.00 | 0.00 | 49 | 1015.4 |
| 20260506212506 | 17 | 30 | 4.8 | 19.3 | 0.00 | 0.00 | 0.00 | 50 | 1015.4 |
| 20260506212004 | 17 | 229 | 4.8 | 17.7 | 0.00 | 0.00 | 0.00 | 48 | 1015.5 |
| 20260506211501 | 18 | 57 | 8.0 | 19.3 | 0.00 | 0.00 | 0.00 | 48 | 1015.5 |
| 20260506211003 | 17 | 80 | 9.7 | 20.9 | 0.00 | 0.00 | 0.00 | 48 | 1015.5 |
| 20260506210503 | 18 | 86 | 8.0 | 20.9 | 0.00 | 0.00 | 0.00 | 48 | 1015.4 |
| 20260506210003 | 19 | 34 | 8.0 | 19.3 | 0.00 | 0.00 | 0.00 | 46 | 1015.4 |
| 20260506205502 | 18 | 49 | 4.8 | 19.3 | 0.00 | 0.00 | 0.00 | 48 | 1015.4 |
| 20260506205002 | 18 | 13 | 4.8 | 17.7 | 0.00 | 0.00 | 0.00 | 49 | 1015.5 |
| 20260506204506 | 17 | 352 | 4.8 | 22.5 | 0.00 | 0.00 | 0.00 | 49 | 1015.5 |
| 20260506204003 | 18 | 342 | 9.7 | 29.0 | 0.00 | 0.00 | 0.00 | 48 | 1015.4 |
| 20260506203502 | 18 | 78 | 14.5 | 29.0 | 0.00 | 0.00 | 0.00 | 47 | 1015.4 |
| 20260506203003 | 18 | 36 | 6.4 | 19.3 | 0.00 | 0.00 | 0.00 | 48 | 1015.4 |
| 20260506202502 | 18 | 345 | 8.0 | 19.3 | 0.00 | 0.00 | 0.00 | 48 | 1015.5 |
| 20260506202004 | 18 | 348 | 4.8 | 27.4 | 0.00 | 0.00 | 0.00 | 48 | 1015.6 |
| 20260506201504 | 17 | 46 | 8.0 | 27.4 | 0.00 | 0.00 | 0.00 | 49 | 1015.6 |
| 20260506201004 | 18 | 80 | 4.8 | 19.3 | 0.00 | 0.00 | 0.00 | 49 | 1015.7 |
| 20260506200503 | 18 | 352 | 4.8 | 20.9 | 0.00 | 0.00 | 0.00 | 50 | 1015.7 |
| 20260506200004 | 18 | 33 | 9.7 | 20.9 | 0.00 | 0.00 | 0.00 | 48 | 1015.7 |
| 20260506195502 | 18 | 352 | 4.8 | 19.3 | 0.00 | 0.00 | 0.00 | 50 | 1015.7 |
| 20260506195003 | 17 | 22 | 9.7 | 22.5 | 0.00 | 0.00 | 0.00 | 50 | 1015.7 |
| 20260506194503 | 17 | 352 | 9.7 | 22.5 | 0.00 | 0.00 | 0.00 | 49 | 1015.8 |
| 20260506194003 | 17 | 105 | 9.7 | 20.9 | 0.00 | 0.00 | 0.00 | 48 | 1015.7 |
| 20260506193504 | 17 | 328 | 8.0 | 20.9 | 0.00 | 0.00 | 0.00 | 49 | 1015.6 |
| 20260506193006 | 17 | 45 | 8.0 | 20.9 | 0.00 | 0.00 | 0.00 | 50 | 1015.8 |
| 20260506192503 | 17 | 338 | 6.4 | 20.9 | 0.00 | 0.00 | 0.00 | 50 | 1015.7 |
| 20260506192003 | 17 | 94 | 9.7 | 22.5 | 0.00 | 0.00 | 0.00 | 48 | 1015.7 |
| 20260506191506 | 17 | 11 | 8.0 | 22.5 | 0.00 | 0.00 | 0.00 | 52 | 1015.8 |
| 20260506191003 | 17 | 83 | 6.4 | 20.9 | 0.00 | 0.00 | 0.00 | 49 | 1015.8 |
| 20260506190507 | 17 | 352 | 8.0 | 20.9 | 0.00 | 0.00 | 0.00 | 50 | 1016.0 |
| 20260506190008 | 16 | 352 | 9.7 | 17.7 | 0.00 | 0.00 | 0.00 | 51 | 1016.0 |
| 20260506185503 | 16 | 76 | 6.4 | 19.3 | 0.00 | 0.00 | 0.00 | 53 | 1016.1 |
| 20260506185003 | 16 | 9 | 9.7 | 20.9 | 0.00 | 0.00 | 0.00 | 53 | 1016.3 |
| 20260506184507 | 16 | 77 | 9.7 | 20.9 | 0.00 | 0.00 | 0.00 | 53 | 1016.2 |
| 20260506184003 | 16 | 20 | 8.0 | 20.9 | 0.00 | 0.00 | 0.00 | 54 | 1016.5 |
| 20260506183503 | 16 | 47 | 6.4 | 25.7 | 0.00 | 0.00 | 0.00 | 53 | 1016.6 |
| 20260506183007 | 15 | 349 | 6.4 | 25.7 | 0.00 | 0.00 | 0.00 | 55 | 1016.6 |
| 20260506182502 | 15 | 70 | 8.0 | 20.9 | 0.00 | 0.00 | 0.00 | 54 | 1016.7 |
| 20260506182010 | 16 | 49 | 4.8 | 22.5 | 0.00 | 0.00 | 0.00 | 54 | 1016.8 |
| 20260506181508 | 16 | 34 | 8.0 | 22.5 | 0.00 | 0.00 | 0.00 | 54 | 1017.0 |
| 20260506181003 | 15 | 330 | 6.4 | 19.3 | 0.00 | 0.00 | 0.00 | 57 | 1017.2 |
| 20260506180506 | 15 | 5 | 4.8 | 17.7 | 0.00 | 0.00 | 0.00 | 58 | 1017.2 |
| 20260506180006 | 15 | 81 | 8.0 | 24.1 | 0.00 | 0.00 | 0.00 | 57 | 1017.1 |
| 20260506175504 | 14 | 360 | 12.9 | 24.1 | 0.00 | 0.00 | 0.00 | 59 | 1017.1 |
| 20260506175003 | 14 | 49 | 9.7 | 19.3 | 0.00 | 0.00 | 0.00 | 59 | 1017.2 |
| 20260506174507 | 14 | 76 | 8.0 | 19.3 | 0.00 | 0.00 | 0.00 | 61 | 1017.2 |
| 20260506174006 | 13 | 62 | 4.8 | 19.3 | 0.00 | 0.00 | 0.00 | 60 | 1017.3 |
| 20260506173504 | 14 | 92 | 9.7 | 19.3 | 0.00 | 0.00 | 0.00 | 59 | 1017.4 |
| 20260506173010 | 14 | 78 | 8.0 | 24.1 | 0.00 | 0.00 | 0.00 | 58 | 1017.4 |
| 20260506172504 | 13 | 78 | 9.7 | 24.1 | 0.00 | 0.00 | 0.00 | 60 | 1017.4 |
| 20260506172003 | 13 | 71 | 11.3 | 24.1 | 0.00 | 0.00 | 0.00 | 60 | 1017.4 |
| 20260506171507 | 13 | 69 | 12.9 | 19.3 | 0.00 | 0.00 | 0.00 | 59 | 1017.4 |
| 20260506171005 | 13 | 77 | 6.4 | 24.1 | 0.00 | 0.00 | 0.00 | 60 | 1017.5 |
| 20260506170504 | 13 | 25 | 6.4 | 24.1 | 0.00 | 0.00 | 0.00 | 59 | 1017.5 |
| 20260506170008 | 13 | 95 | 9.7 | 24.1 | 0.00 | 0.00 | 0.00 | 58 | 1017.8 |
| 20260506165503 | 14 | 71 | 11.3 | 22.5 | 0.00 | 0.00 | 0.00 | 58 | 1017.5 |
| 20260506165003 | 14 | 52 | 8.0 | 24.1 | 0.00 | 0.00 | 0.00 | 58 | 1017.4 |
| 20260506164509 | 14 | 38 | 8.0 | 24.1 | 0.00 | 0.00 | 0.00 | 60 | 1017.4 |
| 20260506164003 | 13 | 91 | 11.3 | 24.1 | 0.00 | 0.00 | 0.00 | 59 | 1017.4 |
| 20260506163507 | 13 | 83 | 11.3 | 20.9 | 0.00 | 0.00 | 0.00 | 58 | 1017.5 |
| 20260506163018 | 13 | 94 | 11.3 | 20.9 | 0.00 | 0.00 | 0.00 | 59 | 1017.6 |
| 20260506162503 | 13 | 73 | 8.0 | 20.9 | 0.00 | 0.00 | 0.00 | 59 | 1017.7 |
| 20260506162011 | 13 | 57 | 6.4 | 22.5 | 0.00 | 0.00 | 0.00 | 61 | 1017.7 |
| 20260506161519 | 13 | 63 | 12.9 | 22.5 | 0.00 | 0.00 | 0.00 | 63 | 1017.9 |
| 20260506161003 | 12 | 80 | 9.7 | 20.9 | 0.00 | 0.00 | 0.00 | 62 | 1017.7 |
| 20260506160505 | 12 | 59 | 6.4 | 24.1 | 0.00 | 0.00 | 0.00 | 62 | 1017.8 |
| 20260506160013 | 12 | 82 | 11.3 | 24.1 | 0.00 | 0.00 | 0.00 | 63 | 1017.7 |
| 20260506155511 | 12 | 23 | 8.0 | 24.1 | 0.00 | 0.00 | 0.00 | 64 | 1017.6 |
| 20260506155003 | 11 | 325 | 11.3 | 24.1 | 0.00 | 0.00 | 0.00 | 64 | 1017.7 |
| 20260506154508 | 12 | 19 | 11.3 | 22.5 | 0.00 | 0.00 | 0.00 | 65 | 1017.6 |
| 20260506154005 | 12 | 64 | 9.7 | 19.3 | 0.00 | 0.00 | 0.00 | 66 | 1017.5 |
| 20260506153506 | 11 | 46 | 4.8 | 17.7 | 0.00 | 0.00 | 0.00 | 68 | 1017.4 |
| 20260506153011 | 11 | 57 | 9.7 | 19.3 | 0.00 | 0.00 | 0.00 | 67 | 1017.4 |
| 20260506152505 | 11 | 337 | 9.7 | 19.3 | 0.00 | 0.00 | 0.00 | 68 | 1017.3 |
| 20260506152006 | 11 | 32 | 8.0 | 22.5 | 0.00 | 0.00 | 0.00 | 68 | 1017.2 |
| 20260506151511 | 11 | 21 | 9.7 | 22.5 | 0.00 | 0.00 | 0.00 | 68 | 1017.2 |
| 20260506151006 | 11 | 5 | 9.7 | 19.3 | 0.00 | 0.00 | 0.00 | 68 | 1017.1 |
| 20260506150507 | 10 | 360 | 6.4 | 19.3 | 0.00 | 0.00 | 0.00 | 70 | 1017.1 |
| 20260506150012 | 10 | 94 | 8.0 | 24.1 | 0.00 | 0.00 | 0.00 | 70 | 1017.2 |
| 20260506145506 | 10 | 317 | 9.7 | 20.9 | 0.00 | 0.00 | 0.00 | 70 | 1016.8 |
| 20260506145004 | 10 | 318 | 8.0 | 19.3 | 0.00 | 0.00 | 0.00 | 72 | 1016.6 |
| 20260506144512 | 10 | 28 | 8.0 | 19.3 | 0.00 | 0.00 | 0.00 | 72 | 1016.4 |
| 20260506144006 | 10 | 52 | 4.8 | 19.3 | 0.00 | 0.00 | 0.00 | 72 | 1016.3 |
| 20260506143507 | 10 | 47 | 6.4 | 22.5 | 0.00 | 0.00 | 0.00 | 73 | 1016.1 |
| 20260506143012 | 10 | 360 | 9.7 | 22.5 | 0.00 | 0.00 | 0.00 | 73 | 1016.0 |
| 20260506142507 | 10 | 5 | 9.7 | 24.1 | 0.00 | 0.00 | 0.00 | 73 | 1016.1 |
| 20260506142007 | 10 | 227 | 9.7 | 30.6 | 0.00 | 0.00 | 0.00 | 73 | 1016.2 |
| 20260506141512 | 10 | 13 | 11.3 | 30.6 | 0.00 | 0.00 | 0.00 | 73 | 1016.2 |
| 20260506141006 | 10 | 88 | 11.3 | 29.0 | 0.00 | 0.00 | 0.00 | 73 | 1016.2 |
| 20260506140506 | 9 | 26 | 6.4 | 27.4 | 0.00 | 0.00 | 0.00 | 74 | 1016.3 |
| 20260506140030 | 9 | 291 | 12.9 | 27.4 | 0.00 | 0.00 | 0.00 | 75 | 1016.3 |
| 20260506135507 | 9 | 360 | 8.0 | 19.3 | 0.00 | 0.00 | 0.00 | 74 | 1016.3 |
| 20260506135011 | 9 | 346 | 6.4 | 19.3 | 0.00 | 0.00 | 0.00 | 75 | 1016.2 |
| 20260506134527 | 9 | 61 | 8.0 | 20.9 | 0.00 | 0.00 | 0.00 | 75 | 1016.4 |
| 20260506134007 | 9 | 78 | 6.4 | 20.9 | 0.00 | 0.00 | 0.00 | 75 | 1016.3 |
| 20260506133504 | 9 | 348 | 4.8 | 20.9 | 0.00 | 0.00 | 0.00 | 75 | 1016.4 |
| 20260506133015 | 8 | 24 | 6.4 | 20.9 | 0.00 | 0.00 | 0.00 | 75 | 1016.4 |
| 20260506132504 | 9 | 352 | 8.0 | 20.9 | 0.00 | 0.00 | 0.00 | 75 | 1016.4 |
| 20260506132005 | 9 | 360 | 8.0 | 17.7 | 0.00 | 0.00 | 0.00 | 75 | 1016.4 |
| 20260506131515 | 8 | 40 | 6.4 | 17.7 | 0.00 | 0.00 | 0.00 | 75 | 1016.2 |
| 20260506131007 | 8 | 348 | 8.0 | 19.3 | 0.00 | 0.00 | 0.00 | 75 | 1016.3 |
| 20260506130507 | 8 | 346 | 8.0 | 19.3 | 0.00 | 0.00 | 0.00 | 75 | 1016.1 |
| 20260506130018 | 8 | 45 | 4.8 | 19.3 | 0.00 | 0.00 | 0.00 | 74 | 1015.9 |
| 20260506125506 | 8 | 11 | 6.4 | 19.3 | 0.00 | 0.00 | 0.00 | 74 | 1015.8 |
| 20260506125006 | 8 | 22 | 6.4 | 16.1 | 0.00 | 0.00 | 0.00 | 74 | 1015.7 |
| 20260506124516 | 8 | 40 | 3.2 | 16.1 | 0.00 | 0.00 | 0.00 | 74 | 1015.7 |
| 20260506124006 | 8 | 26 | 8.0 | 16.1 | 0.00 | 0.00 | 0.00 | 74 | 1015.6 |
| 20260506123510 | 8 | 22 | 3.2 | 19.3 | 0.00 | 0.00 | 0.00 | 74 | 1015.4 |
| 20260506123028 | 8 | 67 | 8.0 | 19.3 | 0.00 | 0.00 | 0.00 | 74 | 1015.3 |
| 20260506122511 | 8 | 74 | 4.8 | 17.7 | 0.00 | 0.00 | 0.00 | 74 | 1015.3 |
| 20260506122012 | 8 | 344 | 4.8 | 17.7 | 0.00 | 0.00 | 0.00 | 74 | 1015.5 |
| 20260506121530 | 8 | 348 | 6.4 | 16.1 | 0.00 | 0.00 | 0.00 | 73 | 1015.3 |
| 20260506121009 | 8 | 9 | 8.0 | 16.1 | 0.00 | 0.00 | 0.00 | 73 | 1015.3 |
| 20260506120510 | 8 | 344 | 4.8 | 16.1 | 0.00 | 0.00 | 0.00 | 74 | 1015.4 |
| 20260506120028 | 8 | 33 | 4.8 | 16.1 | 0.00 | 0.00 | 0.00 | 73 | 1015.1 |
| 20260506115508 | 8 | 340 | 6.4 | 20.9 | 0.00 | 0.00 | 0.00 | 73 | 1014.8 |
| 20260506115007 | 8 | 5 | 6.4 | 20.9 | 0.00 | 0.00 | 0.00 | 73 | 1014.9 |
| 20260506114534 | 8 | 352 | 4.8 | 17.7 | 0.00 | 0.00 | 0.00 | 73 | 1014.9 |
| 20260506114007 | 8 | 17 | 4.8 | 17.7 | 0.00 | 0.00 | 0.00 | 73 | 1014.7 |
| 20260506113510 | 8 | 52 | 6.4 | 17.7 | 0.00 | 0.00 | 0.00 | 73 | 1014.7 |
| 20260506113032 | 8 | 44 | 8.0 | 17.7 | 0.00 | 0.00 | 0.00 | 73 | 1014.5 |
| 20260506112509 | 8 | 57 | 4.8 | 19.3 | 0.00 | 0.00 | 0.00 | 73 | 1014.5 |
| 20260506112014 | 8 | 341 | 4.8 | 19.3 | 0.00 | 0.00 | 0.00 | 73 | 1014.5 |
| 20260506111526 | 8 | 9 | 6.4 | 22.5 | 0.00 | 0.00 | 0.00 | 73 | 1014.7 |
| 20260506111011 | 8 | 338 | 8.0 | 22.5 | 0.00 | 0.00 | 0.00 | 72 | 1014.9 |
| 20260506110510 | 8 | 24 | 9.7 | 22.5 | 0.00 | 0.00 | 0.00 | 72 | 1015.0 |
| 20260506110029 | 8 | 352 | 6.4 | 22.5 | 0.00 | 0.00 | 0.00 | 72 | 1014.9 |
| 20260506105509 | 8 | 62 | 11.3 | 20.9 | 0.00 | 0.00 | 0.00 | 72 | 1014.9 |
| 20260506105008 | 8 | 346 | 6.4 | 20.9 | 0.00 | 0.00 | 0.00 | 72 | 1014.7 |
| 20260506104527 | 8 | 331 | 6.4 | 20.9 | 0.00 | 0.00 | 0.00 | 72 | 1014.5 |
| 20260506104006 | 8 | 5 | 6.4 | 20.9 | 0.00 | 0.00 | 0.00 | 72 | 1014.5 |
| 20260506103510 | 8 | 30 | 4.8 | 20.9 | 0.00 | 0.00 | 0.00 | 72 | 1014.4 |
| 20260506103029 | 9 | 15 | 8.0 | 20.9 | 0.00 | 0.00 | 0.00 | 72 | 1014.5 |
| 20260506102507 | 9 | 13 | 8.0 | 17.7 | 0.00 | 0.00 | 0.00 | 72 | 1014.6 |
| 20260506102010 | 9 | 352 | 3.2 | 17.7 | 0.00 | 0.00 | 0.00 | 72 | 1014.6 |
| 20260506101527 | 9 | 180 | 6.4 | 17.7 | 0.00 | 0.00 | 0.00 | 72 | 1014.6 |
| 20260506101009 | 9 | 352 | 4.8 | 24.1 | 0.00 | 0.00 | 0.00 | 72 | 1014.7 |
| 20260506100509 | 9 | 329 | 8.0 | 20.9 | 0.00 | 0.00 | 0.00 | 72 | 1014.7 |
| 20260506100034 | 9 | 328 | 6.4 | 25.7 | 0.00 | 0.00 | 0.00 | 72 | 1014.5 |
| 20260506095510 | 9 | 10 | 6.4 | 25.7 | 0.00 | 0.00 | 0.00 | 72 | 1014.4 |
| 20260506095009 | 9 | 346 | 6.4 | 16.1 | 0.00 | 0.00 | 0.00 | 72 | 1014.3 |
| 20260506094528 | 9 | 19 | 6.4 | 16.1 | 0.00 | 0.00 | 0.00 | 72 | 1014.1 |
| 20260506094006 | 9 | 352 | 6.4 | 17.7 | 0.00 | 0.00 | 0.00 | 72 | 1014.4 |
| 20260506093507 | 9 | 346 | 4.8 | 17.7 | 0.00 | 0.00 | 0.00 | 72 | 1014.3 |
| 20260506093030 | 9 | 33 | 4.8 | 17.7 | 0.00 | 0.00 | 0.00 | 72 | 1014.3 |
| 20260506092512 | 9 | 15 | 6.4 | 14.5 | 0.00 | 0.00 | 0.00 | 72 | 1014.1 |
| 20260506092010 | 9 | 60 | 6.4 | 14.5 | 0.00 | 0.00 | 0.00 | 71 | 1014.3 |
| 20260506091530 | 9 | 328 | 3.2 | 14.5 | 0.00 | 0.00 | 0.00 | 71 | 1014.2 |
| 20260506091010 | 9 | 9 | 4.8 | 16.1 | 0.00 | 0.00 | 0.00 | 71 | 1014.2 |
| 20260506090510 | 9 | 65 | 4.8 | 16.1 | 0.00 | 0.00 | 0.00 | 71 | 1013.9 |
| 20260506090027 | 9 | 11 | 4.8 | 24.1 | 0.00 | 0.00 | 0.00 | 71 | 1013.9 |
| 20260506085509 | 9 | 24 | 9.7 | 24.1 | 0.00 | 0.00 | 0.00 | 70 | 1013.7 |
| 20260506085006 | 9 | 17 | 6.4 | 20.9 | 0.00 | 0.00 | 0.00 | 70 | 1013.4 |
| 20260506084528 | 9 | 340 | 4.8 | 19.3 | 0.00 | 0.00 | 0.00 | 70 | 1013.6 |
| 20260506084010 | 9 | 5 | 4.8 | 16.1 | 0.00 | 0.00 | 0.00 | 70 | 1013.6 |
| 20260506083509 | 9 | 9 | 3.2 | 20.9 | 0.00 | 0.00 | 0.00 | 70 | 1013.7 |
| 20260506083019 | 9 | 99 | 3.2 | 20.9 | 0.00 | 0.00 | 0.00 | 70 | 1013.7 |
| 20260506082507 | 9 | 16 | 4.8 | 16.1 | 0.00 | 0.00 | 0.00 | 70 | 1013.5 |
| 20260506082007 | 9 | 348 | 4.8 | 16.1 | 0.00 | 0.00 | 0.00 | 69 | 1013.2 |
| 20260506081528 | 9 | 349 | 3.2 | 12.9 | 0.00 | 0.00 | 0.00 | 69 | 1012.9 |
| 20260506081010 | 9 | 342 | 4.8 | 14.5 | 0.00 | 0.00 | 0.00 | 69 | 1012.8 |
| 20260506080507 | 9 | 11 | 4.8 | 16.1 | 0.00 | 0.00 | 0.00 | 68 | 1012.5 |
| 20260506073510 | 9 | 352 | 6.4 | 20.9 | 0.00 | 0.00 | 0.00 | 66 | 1011.8 |
| 20260506073020 | 9 | 351 | 6.4 | 27.4 | 0.00 | 0.00 | 0.00 | 65 | 1012.0 |
| 20260506072507 | 9 | 58 | 11.3 | 27.4 | 0.00 | 0.00 | 0.00 | 65 | 1012.1 |
| 20260506072008 | 9 | 349 | 8.0 | 17.7 | 0.00 | 0.00 | 0.00 | 65 | 1012.1 |
| 20260506071526 | 9 | 69 | 8.0 | 22.5 | 0.00 | 0.00 | 0.00 | 65 | 1012.0 |
| 20260506071008 | 9 | 348 | 6.4 | 22.5 | 0.00 | 0.00 | 0.00 | 65 | 1012.3 |
| 20260506070504 | 9 | 19 | 6.4 | 20.9 | 0.00 | 0.00 | 0.00 | 65 | 1012.3 |
| 20260506062508 | 9 | 313 | 4.8 | 19.3 | 0.00 | 0.00 | 0.00 | 69 | 1012.3 |
| 20260506062017 | 9 | 352 | 4.8 | 14.5 | 0.00 | 0.00 | 0.00 | 69 | 1012.4 |
| 20260506061534 | 9 | 57 | 6.4 | 17.7 | 0.00 | 0.00 | 0.00 | 70 | 1012.3 |
| 20260506061011 | 9 | 32 | 4.8 | 17.7 | 0.00 | 0.00 | 0.00 | 71 | 1012.5 |
| 20260506060508 | 9 | 61 | 3.2 | 16.1 | 0.00 | 0.00 | 0.00 | 72 | 1012.4 |
| 20260506051013 | 9 | 44 | 8.0 | 20.9 | 0.00 | 0.00 | 0.00 | 75 | 1012.2 |
| 20260506050504 | 9 | 339 | 8.0 | 20.9 | 0.00 | 0.00 | 0.00 | 75 | 1012.5 |
| 20260506045007 | 9 | 51 | 4.8 | 17.7 | 0.00 | 0.00 | 0.00 | 76 | 1012.7 |
| 20260506044520 | 9 | 91 | 6.4 | 20.9 | 0.00 | 0.00 | 0.00 | 76 | 1012.5 |
| 20260506044013 | 9 | 33 | 6.4 | 20.9 | 0.00 | 0.00 | 0.00 | 77 | 1012.5 |
| 20260506043511 | 9 | 346 | 6.4 | 16.1 | 0.00 | 0.00 | 0.00 | 78 | 1012.4 |
| 20260506043025 | 9 | 5 | 4.8 | 14.5 | 0.00 | 0.00 | 0.00 | 79 | 1012.4 |
| 20260506042507 | 9 | 342 | 4.8 | 14.5 | 0.00 | 0.00 | 0.00 | 79 | 1012.5 |
| 20260506042012 | 9 | 5 | 6.4 | 17.7 | 0.00 | 0.00 | 0.00 | 80 | 1012.5 |
| 20260506041524 | 9 | 46 | 6.4 | 16.1 | 0.00 | 0.00 | 0.00 | 80 | 1012.5 |
| 20260506041003 | 9 | 35 | 6.4 | 14.5 | 0.00 | 0.00 | 0.00 | 80 | 1012.5 |
| 20260506040508 | 9 | 19 | 4.8 | 16.1 | 0.00 | 0.00 | 0.00 | 80 | 1012.4 |
| 20260506040021 | 9 | 317 | 3.2 | 19.3 | 0.00 | 0.00 | 0.00 | 80 | 1012.5 |
| 20260506035508 | 9 | 70 | 6.4 | 19.3 | 0.00 | 0.00 | 0.00 | 80 | 1012.5 |
| 20260506035008 | 9 | 82 | 8.0 | 19.3 | 0.00 | 0.00 | 0.00 | 80 | 1012.5 |
| 20260506034522 | 9 | 19 | 4.8 | 17.7 | 0.00 | 0.00 | 0.00 | 80 | 1012.5 |
| 20260506034010 | 9 | 340 | 4.8 | 17.7 | 0.00 | 0.00 | 0.00 | 80 | 1012.3 |
| 20260506033509 | 9 | 93 | 4.8 | 17.7 | 0.00 | 0.00 | 0.00 | 80 | 1012.4 |
| 20260506033027 | 9 | 13 | 6.4 | 20.9 | 0.00 | 0.00 | 0.00 | 79 | 1012.3 |
| 20260506032511 | 9 | 322 | 6.4 | 24.1 | 0.00 | 0.00 | 0.00 | 79 | 1012.2 |
| 20260506032007 | 9 | 328 | 8.0 | 24.1 | 0.00 | 0.00 | 0.00 | 79 | 1012.1 |
| 20260506031534 | 9 | 360 | 8.0 | 25.7 | 0.00 | 0.00 | 0.00 | 79 | 1012.1 |
| 20260506031006 | 9 | 171 | 8.0 | 25.7 | 0.00 | 0.00 | 0.00 | 79 | 1011.8 |
| 20260506030506 | 10 | 59 | 9.7 | 19.3 | 0.00 | 0.00 | 0.00 | 79 | 1011.8 |
| 20260506030019 | 10 | 94 | 4.8 | 17.7 | 0.00 | 0.00 | 0.00 | 79 | 1011.7 |
| 20260506025508 | 10 | 13 | 6.4 | 19.3 | 0.00 | 0.00 | 0.00 | 79 | 1011.7 |
| 20260506025006 | 10 | 352 | 8.0 | 19.3 | 0.00 | 0.00 | 0.00 | 79 | 1011.7 |
| 20260506024535 | 10 | 10 | 8.0 | 20.9 | 0.00 | 0.00 | 0.00 | 79 | 1011.5 |
| 20260506024007 | 10 | 329 | 8.0 | 20.9 | 0.00 | 0.00 | 0.00 | 79 | 1011.5 |
| 20260506023503 | 10 | 32 | 3.2 | 19.3 | 0.00 | 0.00 | 0.00 | 79 | 1011.4 |
| 20260506023008 | 10 | 83 | 6.4 | 20.9 | 0.00 | 0.00 | 0.00 | 78 | 1011.3 |
| 20260506022506 | 10 | 34 | 9.7 | 20.9 | 0.00 | 0.00 | 0.00 | 78 | 1011.0 |
| 20260506022008 | 10 | 93 | 9.7 | 25.7 | 0.00 | 0.00 | 0.00 | 78 | 1011.1 |
| 20260506021514 | 10 | 289 | 9.7 | 25.7 | 0.00 | 0.00 | 0.00 | 78 | 1011.2 |
| 20260506021007 | 10 | 352 | 9.7 | 25.7 | 0.00 | 0.00 | 0.00 | 77 | 1011.0 |
| 20260506020505 | 10 | 45 | 6.4 | 25.7 | 0.00 | 0.00 | 0.00 | 77 | 1011.0 |
| 20260506020005 | 10 | 32 | 6.4 | 20.9 | 0.00 | 0.00 | 0.00 | 77 | 1010.8 |
| 20260506015506 | 10 | 340 | 6.4 | 20.9 | 0.00 | 0.00 | 0.00 | 77 | 1010.7 |
| 20260506015004 | 10 | 5 | 8.0 | 20.9 | 0.00 | 0.00 | 0.00 | 76 | 1010.7 |
| 20260506014513 | 10 | 315 | 6.4 | 20.9 | 0.00 | 0.00 | 0.00 | 76 | 1010.6 |
| 20260506014004 | 10 | 20 | 6.4 | 19.3 | 0.00 | 0.00 | 0.00 | 75 | 1010.6 |
| 20260506013504 | 10 | 5 | 6.4 | 19.3 | 0.00 | 0.00 | 0.00 | 74 | 1010.6 |
| 20260506013007 | 10 | 329 | 6.4 | 19.3 | 0.00 | 0.00 | 0.00 | 74 | 1010.6 |
| 20260506012505 | 10 | 352 | 6.4 | 19.3 | 0.00 | 0.00 | 0.00 | 73 | 1010.4 |
| 20260506012007 | 11 | 335 | 6.4 | 16.1 | 0.00 | 0.00 | 0.00 | 73 | 1010.1 |
| 20260506011537 | 11 | 351 | 3.2 | 12.9 | 0.00 | 0.00 | 0.00 | 73 | 1010.1 |
| 20260506011008 | 11 | 37 | 4.8 | 20.9 | 0.00 | 0.00 | 0.00 | 72 | 1010.1 |
| 20260506010513 | 11 | 350 | 3.2 | 20.9 | 0.00 | 0.00 | 0.00 | 72 | 1010.1 |
| 20260506010003 | 11 | 68 | 4.8 | 17.7 | 0.00 | 0.00 | 0.00 | 72 | 1009.9 |
| 20260506005502 | 11 | 23 | 4.8 | 17.7 | 0.00 | 0.00 | 0.00 | 72 | 1009.9 |
| 20260506005003 | 11 | 99 | 6.4 | 17.7 | 0.00 | 0.00 | 0.00 | 72 | 1009.8 |
| 20260506004506 | 11 | 13 | 6.4 | 22.5 | 0.00 | 0.00 | 0.00 | 72 | 1009.6 |
| 20260506004002 | 11 | 37 | 6.4 | 22.5 | 0.00 | 0.00 | 0.00 | 72 | 1009.5 |
| 20260506003503 | 11 | 11 | 6.4 | 16.1 | 0.00 | 0.00 | 0.00 | 73 | 1009.4 |
| 20260506003015 | 11 | 339 | 4.8 | 16.1 | 0.00 | 0.00 | 0.00 | 72 | 1009.3 |
| 20260506002509 | 11 | 40 | 6.4 | 16.1 | 0.00 | 0.00 | 0.00 | 73 | 1009.3 |
| 20260506002011 | 11 | 84 | 3.2 | 16.1 | 0.00 | 0.00 | 0.00 | 73 | 1009.3 |
| 20260506001519 | 11 | 360 | 6.4 | 16.1 | 0.00 | 0.00 | 0.00 | 73 | 1009.2 |
| 20260506001007 | 11 | 348 | 6.4 | 17.7 | 0.00 | 0.00 | 0.00 | 73 | 1009.2 |
| 20260506000511 | 11 | 75 | 8.0 | 17.7 | 0.00 | 0.00 | 0.00 | 72 | 1009.3 |
| 20260506000004 | 11 | 336 | 4.8 | 19.3 | 0.00 | 0.00 | 0.00 | 73 | 1009.1 |
| 20260505235504 | 11 | 22 | 4.8 | 19.3 | 0.00 | 0.00 | 0.00 | 73 | 1009.3 |
| 20260505235003 | 12 | 5 | 6.4 | 17.7 | 0.00 | 0.00 | 0.00 | 73 | 1009.2 |
| 20260505234515 | 11 | 17 | 8.0 | 22.5 | 0.00 | 0.00 | 0.00 | 73 | 1009.3 |
| 20260505234008 | 12 | 86 | 9.7 | 22.5 | 0.00 | 0.00 | 0.00 | 73 | 1009.1 |
| 20260505233504 | 11 | 15 | 4.8 | 24.1 | 0.00 | 0.00 | 0.00 | 73 | 1009.1 |
| 20260505233016 | 11 | 17 | 11.3 | 24.1 | 0.00 | 0.00 | 0.00 | 73 | 1009.4 |
| 20260505232510 | 12 | 294 | 9.7 | 22.5 | 0.00 | 0.00 | 0.00 | 73 | 1009.3 |